This demonstration page uses our WeatherBlox Daily Observations layout. Learn more.

Left ArrowRight Arrow

Hourly Observations for November 25, 2015

Temp ( °F °C ) Dew Point ( °F °C ) Humidity (%) Winds ( mph kmh ) Pressure ( in mb ) Visibility ( mi km ) Precip ( " mm )
12:06 am 00:06 Cloudy with Light Snow 17 -8.3 13 -10.6 84 84 NNW 8 13 30.36 1028 2 3 N/A
12:13 am 00:13 Cloudy with Light Snow 17 -8.3 14 -10 88 88 NW 9 15 30.36 1028 2 3 N/A
12:34 am 00:34 Cloudy with Light Snow 16 -9 12 -11 86 86 NW 10 17 30.42 1030 1 2 N/A
12:43 am 00:43 Cloudy with Light Snow 16 -8.9 13 -10.6 88 88 NW 8 13 30.42 1030 2 3 0.01 0.25
12:53 am 00:53 Cloudy with Light Snow 16 -8.9 12 -11.1 84 84 NW 9 15 30.32 1027 4 6 0.01 0.25
1:03 am 01:03 Cloudy with Light Snow 16 -9 12 -11 86 86 NW 13 20 30.42 1030 4 6 N/A
1:16 am 01:16 Cloudy with Light Snow 16 -9 12 -11 86 86 NW 13 20 30.42 1030 2 3 N/A
1:26 am 01:26 Cloudy with Light Snow 16 -9 12 -11 86 86 NW 10 17 30.45 1031 3 4 N/A
1:33 am 01:33 Cloudy with Light Snow 15 -9.4 12 -11.1 88 88 NW 10 17 30.45 1031 3 5 N/A
1:42 am 01:42 Cloudy with Light Snow 16 -9 10 -12 79 79 NW 10 17 30.45 1031 3 4 N/A
1:53 am 01:53 Cloudy with Light Snow 15 -9.4 11 -11.7 84 84 NNW 10 17 30.35 1028 3 5 0.01 0.25
2:53 am 02:53 Cloudy with Light Snow 14 -10 10 -12.2 84 84 NNW 7 11 30.38 1029 4 6 N/A
3:06 am 03:06 Cloudy with Light Snow 14 -10 10 -12 85 85 NNW 8 13 30.48 1032 4 6 N/A
3:32 am 03:32 Cloudy with Light Snow 14 -10 9 -13 79 79 NNW 8 13 30.48 1032 8 13 N/A
3:53 am 03:53 Cloudy 14 -10 8 -13.3 77 77 NW 7 11 30.39 1029 10 16 N/A
4:53 am 04:53 Cloudy 13 -10.6 8 -13.3 81 81 WNW 6 9 30.42 1030 10 16 N/A
5:53 am 05:53 Cloudy 12 -11.1 6 -14.4 77 77 NW 8 13 30.44 1031 10 16 N/A
6:53 am 06:53 Clear 7 -13.9 2 -16.7 80 80 NW 9 15 30.48 1032 10 16 N/A
7:53 am 07:53 Sunny N/A -2 -18.9 91 91 WNW 7 11 30.51 1033 10 16 N/A
8:53 am 08:53 Sunny -1 -18.3 -4 -20 87 87 SW 5 7 30.53 1034 10 16 N/A
9:53 am 09:53 Sunny 6 -14.4 2 -16.7 83 83 SW 7 11 30.53 1034 10 16 N/A
10:53 am 10:53 Sunny 8 -13.3 4 -15.6 83 83 SW 10 17 30.53 1034 10 16 N/A
11:53 am 11:53 Sunny 9 -12.8 4 -15.6 80 80 SW 13 20 30.51 1033 10 16 N/A
12:53 pm 12:53 Sunny 10 -12.2 5 -15 80 80 WSW 12 19 30.50 1033 10 16 N/A
1:53 pm 13:53 Sunny 12 -11.1 6 -14.4 77 77 WSW 17 28 30.47 1032 10 16 N/A
2:53 pm 14:53 Sunny 12 -11.1 6 -14.4 77 77 SW 15 24 30.47 1032 10 16 N/A
3:53 pm 15:53 Sunny 10 -12.2 4 -15.6 76 76 SW 15 24 30.47 1032 10 16 N/A
4:53 pm 16:53 Clear 9 -12.8 2 -16.7 73 73 SW 13 20 30.48 1032 10 16 N/A
5:53 pm 17:53 Clear 3 -16.1 -1 -18.3 83 83 SW 12 19 30.50 1033 10 16 N/A
6:53 pm 18:53 Clear 1 -17.2 -3 -19.4 83 83 SW 12 19 30.52 1033 10 16 N/A
7:53 pm 19:53 Clear 1 -17.2 -3 -19.4 83 83 SW 13 20 30.53 1034 10 16 N/A
8:53 pm 20:53 Clear 4 -15.6 N/A 83 83 SW 17 28 30.54 1034 10 16 N/A
9:53 pm 21:53 Clear 4 -15.6 N/A 83 83 SW 20 31 30.53 1034 10 16 N/A
10:53 pm 22:53 Clear 4 -15.6 -1 -18.3 80 80 SW 18 30 30.54 1034 10 16 N/A
11:53 pm 23:53 Clear 3 -16.1 -1 -18.3 83 83 SW 16 26 30.54 1034 10 16 N/A

Powered by AerisWeather